WELCOME TO AIR WEST FLIGHT SUPPORT

Slider

THE RIGHT CHOICE FOR THE BEST SERVICE

OUR GOAL IS TO BE THE MOST ACCOMMODATING FBO IN LETHBRIDGE, AB. WITH EFFICIENT AND PROFFESSIONAL SERVICE

 WE HAVE GOT IT ALL!

  • Great Attitude
  • The Right Equipment
  • Large Facilities
  • Competitive Fuel Prices
  • In-House Aircraft Maintenance
  • In-House Flight Training, Aircraft Rentals
  • Aircraft Sales And Much  More!

Facebook By Weblizar Powered By Weblizar

 


We are located at the Lethbridge County Airport (CYQL) on Ramp 2 at the east end of Taxiway C.   Lethbridge is a key point of entry where you can clear customs using
CANPASS.  The Airport is approximately 5 km south of the City of Lethbridge, which offers convenient access to nearby towns such as Cardston, Crowsnest Pass, Coaldale, Fort MacLeod, Milk River, Pincher Creek and Taber.  Lethbridge and its surrounding area is a great tourist destination

 


Click on image to enlarge

Available data for CYQL from the past 2 hours
LETHBRIDGE VOR, AB
Metar
CYQL 190300Z 16003KT 15SM FEW130 SCT300 05/M01 A3007 RMK AC2CI2 SLP200

03:00 UTC

Wind: 160° 3kt

Visibility: 15 SM

Sky: FEW 13000 ft

Temp: 5 deg C / 41 deg F

Dewpoint: -1 deg C / 30.2 deg F

Pressure: 30.07 inHg

TAF
TAF AMD CYQL 190121Z 1901/1912 12005KT WS010/03020KT P6SM FEW150 BKN300 FM190400 08005KT P6SM FEW150 SCT300 FM190600 02005KT P6SM SCT300 BECMG 1910/1912 24005KT RMK NXT FCST BY 190600Z